Location: �quirre
(50.4736°N, 2.2351°E)
Time: 23:15:06
(UTC+00:00)

Okean 1-7 Rocket - Pass Details

Date: 07 August 2020
Orbit: 617 x 648 km, 82.5° (Epoch: 23 September)

Event Time Altitude Azimuth Distance (km) Brightness Sun altitude
Rises 02:24:33 0° 349° (N) 2,907 7.7 -15.8°
Reaches altitude 10° 02:26:47 10° 349° (N) 1,998 6.8 -15.5°
Maximum altitude 02:31:12 88° 267° (W) 630 3.5 -15.1°
Enters shadow 02:35:06 13° 172° (S) 1,783 5.5 -14.7°
